1998-067LR

Last updated on Thu May 25 2017 00:15:03 GMT+0000 (Coordinated Universal Time)

1 42708U 98067LR 17144.32001450 .00011689 00000-0 17779-3 0 9992 2 42708 51.6406 157.2215 0001324 171.0885 293.0075 15.55010232 1087
UTC large
Height (km)
Speed (km/s)
/
Latitude / Longitude
Inclination (degrees)
Orbital Period (minutes)
Azimuth
Elevation
Range (km)
Doppler Factor

Next 0 passes for location: London (51.5072 / 0.1276)

Sorry there are no passes over London.